Preview of NWS' New Version of Forecast
This preview is not operational and should not be used for support decisions.

Regional Weather Roundup (RWR)

Issued by National Weather Service (NWS)

                            
000
ASCA42 TJSJ 181210
RWRPR 
PUERTO RICO/U.S. VIRGIN ISLANDS HOURLY WEATHER ROUNDUP
NATIONAL WEATHER SERVICE SAN JUAN PR
800 AM AST THU APR 18 2019

PRZ001>002-007>008-010-181300-
PUERTO RICO
  
CITY           SKY/WX    TMP DP  RH WIND       PRES   REMARKS
SAN JUAN LMM   MOSUNNY   77  70  78 E8        30.04R                  
AGUADILLA      CLOUDY    73  66  78 E7        30.05R                  
CEIBA          MOSUNNY   82  70  65 MISG      30.05R                  
$$

VIZ001>002-181300-
U.S. VIRGIN ISLANDS
  
CITY           SKY/WX    TMP DP  RH WIND       PRES   REMARKS
CHARLOTTE AMA  MOSUNNY   82  66  57 E14       30.03R                  
CHRISTIANSTED  MOSUNNY   81  66  61 E15       30.03R                  
$$

HOURLY WEATHER ROUNDUP FOR THE NEWS MEDIA
  
CITY           SKY/WX    TMP DP  RH WIND       PRES   REMARKS
ORLANDO        PTSUNNY   69  63  81 SE5       30.02R                  
NEW YORK       CLOUDY    51  42  71 E16G24    30.16F                  
NEWARK         CLOUDY    54  40  59 SE10      30.14F                  
CHICAGO        CLOUDY    54  50  86 W5        29.56R                  
HARTFORD       CLOUDY    44  38  79 SE8       30.27F                  
BOSTON         CLOUDY    47  36  65 S5        30.28S                  
DALLAS         CLOUDY    63  59  87 N3        29.67R                  
PHILADELPHIA   CLOUDY    57  49  74 E10       30.08S                  
LOS ANGELES    PTCLDY    55  51  86 CALM      30.09S                  
WASHINGTON DC  CLOUDY    55  50  83 E5        30.03S